Regional Weather Roundup
Issued by NWS Huntsville, AL

Home | Current Version | Previous Version | Text Only | Print | Product List | Glossary On
Versions: 1 2 3 4 5 6 7 8 9 10 11 12 13 14 15 16 17 18 19 20 21 22 23 24 25 26 27 28
000
ASUS44 KHUN 260310
RWRHUN

WEATHER ROUNDUP FOR THE TENNESSEE VALLEY
NATIONAL WEATHER SERVICE HUNTSVILLE AL
1000 PM CDT TUE JUL 25 2017

ALZ001>004-260400-
NORTHWEST ALABAMA

CITY           SKY/WX    TMP DP  RH WIND       PRES   REMARKS
COURTLAND HCN    N/A     79 N/A N/A CALM        N/A
RUSSELLVILLE     N/A     77 N/A N/A MISG        N/A
SHOALS AIRPORT CLEAR     78  70  76 CALM      30.10R
SHOALS TVA RES   N/A     79 N/A N/A MISG        N/A
$$

ALZ005>007-016-260400-
NORTH CENTRAL ALABAMA

CITY           SKY/WX    TMP DP  RH WIND       PRES   REMARKS
CULLMAN AG STN   N/A     77 N/A N/A E5          N/A
DECATUR AP     CLEAR     76  75  97 MISG      30.10R
HUNTSVILLE AP  PTCLDY    77  75  93 S5        30.09S
MERIDIANVILLE  CLOUDY    77  72  83 CALM      30.12R
REDSTONE ARSN  CLEAR     75  73  95 CALM      30.08F
VINEMONT AP    FAIR      77  73  88 CALM      30.13S
$$

ALZ008>010-260400-
NORTHEAST ALABAMA

CITY           SKY/WX    TMP DP  RH WIND       PRES   REMARKS
ALBERTVILLE    CLOUDY    75  75 100 CALM      30.12S
FORT PAYNE     CLEAR     72  70  94 CALM      30.13R
SCOTTSBORO AP  CLEAR     75  75 100 CALM      30.11F
SCOTTSBORO HCN   N/A     73 N/A N/A MISG        N/A
VALLEY HEAD      N/A     72 N/A N/A MISG        N/A
$$

TNZ076-096-097-260400-
SOUTHEASTERN MIDDLE TENNESSEE

CITY           SKY/WX    TMP DP  RH WIND       PRES   REMARKS
TULLAHOMA      CLEAR     75  68  78 CALM      30.14S
WINCHESTER     CLEAR     75  70  83 S5        30.13S
$$

...SURROUNDING SITES...

CITY           SKY/WX    TMP DP  RH WIND       PRES   REMARKS
ATLANTA        MOCLDY    77  72  84 CALM      30.13R
ANNISTON       CLOUDY    73  71  93 CALM      30.11S
BIRMINGHAM     PTCLDY    82  75  79 CALM      30.12R
CHATTANOOGA    PTCLDY    82  69  64 CALM      30.11R
CORINTH        FAIR      79  73  83 CALM      30.08R
DALTON         NOT AVBL
GADSDEN        CLOUDY    78  73  84 CALM      30.12R
GOLDEN TRNGL   MOCLDY    82  72  69 W3        30.05R
JACKSON TN     CLEAR     82  76  81 CALM      30.07S
MEMPHIS        CLEAR     84  76  76 SW7       30.06S HX  93
NASHVILLE      MOCLDY    80  74  81 S5        30.10R
OXFORD MS      FAIR      73  73 100 CALM      30.10S FOG
ROME           CLEAR     79  75  87 CALM      30.10R
SAVANNAH       CLEAR     79  77  94 CALM      30.08R
SELMER         CLEAR     79  73  83 SW3       30.09R
TUPELO         PTCLDY    82  74  76 CALM      30.06S
TUSCALOOSA     PTCLDY    81  79  94 CALM      30.08R HX  90
$$

...GULF COAST WEATHER...

CITY           SKY/WX    TMP DP  RH WIND       PRES   REMARKS
GULFPORT       CLEAR     77  76  96 CALM      30.10R
PASCAGOULA     CLEAR     75  72  90 CALM      30.11R
MOBILE         CLOUDY    76  73  91 NW5       30.12R
GULF SHORES    PTCLDY    77  77 100 CALM      30.10R
PENSACOLA      MOCLDY    78  74  87 NW3       30.09R
DESTIN         CLOUDY    84  72  67 CALM      30.09R
PANAMA CITY    PTCLDY    77  74  90 CALM      30.09R
APPALACHICOLA  PTCLDY    80  77  90 CALM      30.09R
$$





USA.gov is the U.S. government's official web portal to all federal, state and local government web resources and services.